| time (UTC) | temp F | wind direction | speed MPH | gust MPH | rain 1hr in | rain 24hr in | rain mn in | humidity % | barometer mb |
| 20260905185521 | 78 | 302 | 1.0 | 4.0 | 0.00 | 0.14 | 0.00 | 79 | 1009.0 |
| 20260905185058 | 78 | 191 | 0.0 | 5.0 | 0.00 | 0.14 | 0.00 | 79 | 1009.0 |
| 20260905184525 | 78 | 191 | 3.0 | 5.0 | 0.00 | 0.14 | 0.00 | 79 | 1009.1 |
| 20260905184059 | 78 | 198 | 2.0 | 4.0 | 0.00 | 0.14 | 0.00 | 83 | 1009.1 |
| 20260905183530 | 78 | 128 | 0.0 | 5.0 | 0.00 | 0.14 | 0.00 | 83 | 1009.3 |
| 20260905183044 | 78 | 115 | 2.0 | 5.0 | 0.00 | 0.14 | 0.00 | 82 | 1009.3 |
| 20260905182517 | 78 | 109 | 2.0 | 4.0 | 0.00 | 0.14 | 0.00 | 82 | 1009.3 |
| 20260905182053 | 78 | 148 | 2.0 | 4.0 | 0.00 | 0.14 | 0.00 | 82 | 1009.3 |
| 20260905181523 | 78 | 233 | 1.0 | 4.0 | 0.00 | 0.14 | 0.00 | 83 | 1009.4 |
| 20260905181056 | 77 | 232 | 0.0 | 6.0 | 0.00 | 0.14 | 0.00 | 83 | 1009.5 |
| 20260905180532 | 77 | 207 | 2.0 | 6.0 | 0.00 | 0.14 | 0.00 | 83 | 1009.5 |
| 20260905180046 | 77 | 248 | 0.0 | 2.0 | 0.00 | 0.14 | 0.00 | 83 | 1009.6 |
| 20260905175520 | 77 | 291 | 0.0 | 2.0 | 0.00 | 0.14 | 0.00 | 84 | 1009.6 |
| 20260905175052 | 77 | 283 | 0.0 | 2.0 | 0.00 | 0.14 | 0.00 | 84 | 1009.8 |
| 20260905174543 | 77 | 283 | 0.0 | 3.0 | 0.00 | 0.14 | 0.00 | 85 | 1009.8 |
| 20260905174100 | 76 | 238 | 1.0 | 3.0 | 0.00 | 0.14 | 0.00 | 84 | 1009.8 |
| 20260905174002 | 76 | 208 | 0.0 | 3.0 | 0.00 | 0.14 | 0.00 | 85 | 1009.8 |
| 20260905173540 | 76 | 213 | 0.0 | 3.0 | 0.00 | 0.14 | 0.00 | 84 | 1009.8 |
| 20260905173054 | 76 | 213 | 0.0 | 3.0 | 0.00 | 0.14 | 0.00 | 85 | 1010.0 |
| 20260905172526 | 76 | 229 | 2.0 | 4.0 | 0.00 | 0.14 | 0.00 | 85 | 1010.1 |
| 20260905172101 | 76 | 228 | 1.0 | 4.0 | 0.00 | 0.14 | 0.00 | 84 | 1010.1 |
| 20260905172004 | 76 | 220 | 0.0 | 4.0 | 0.00 | 0.14 | 0.00 | 85 | 1010.1 |
| 20260905171537 | 76 | 250 | 2.0 | 4.0 | 0.00 | 0.14 | 0.00 | 85 | 1010.1 |
| 20260905171010 | 76 | 302 | 2.0 | 4.0 | 0.00 | 0.14 | 0.00 | 85 | 1010.2 |
| 20260905170544 | 76 | 274 | 0.0 | 3.0 | 0.00 | 0.14 | 0.00 | 85 | 1010.2 |
| 20260905170013 | 77 | 292 | 1.0 | 3.0 | 0.00 | 0.14 | 0.00 | 85 | 1010.3 |
| 20260905165527 | 77 | 217 | 0.0 | 2.0 | 0.00 | 0.14 | 0.00 | 85 | 1010.3 |
| 20260905165104 | 76 | 201 | 0.0 | 2.0 | 0.00 | 0.14 | 0.00 | 85 | 1010.4 |
| 20260905165002 | 76 | 286 | 0.0 | 2.0 | 0.00 | 0.14 | 0.00 | 85 | 1010.4 |
| 20260905164540 | 76 | 296 | 1.0 | 2.0 | 0.00 | 0.14 | 0.00 | 86 | 1010.3 |
| 20260905164013 | 76 | 269 | 0.0 | 3.0 | 0.00 | 0.14 | 0.00 | 87 | 1010.4 |
| 20260905163544 | 76 | 227 | 1.0 | 3.0 | 0.00 | 0.14 | 0.00 | 85 | 1010.4 |
| 20260905163004 | 75 | 17 | 0.0 | 3.0 | 0.00 | 0.14 | 0.00 | 85 | 1010.5 |
| 20260905162538 | 75 | 17 | 0.0 | 3.0 | 0.00 | 0.14 | 0.00 | 85 | 1010.6 |
| 20260905162007 | 75 | 54 | 0.0 | 2.0 | 0.00 | 0.14 | 0.00 | 86 | 1010.6 |
| 20260905161542 | 75 | 345 | 0.0 | 2.0 | 0.00 | 0.14 | 0.00 | 88 | 1010.7 |
| 20260905161012 | 75 | 313 | 1.0 | 2.0 | 0.00 | 0.14 | 0.00 | 86 | 1010.9 |
| 20260905160529 | 75 | 313 | 0.0 | 2.0 | 0.00 | 0.14 | 0.00 | 86 | 1010.9 |
| 20260905160059 | 75 | 95 | 0.0 | 3.0 | 0.00 | 0.14 | 0.00 | 86 | 1011.0 |
| 20260905155525 | 75 | 95 | 1.0 | 3.0 | 0.00 | 0.14 | 0.00 | 85 | 1011.1 |
| 20260905155101 | 75 | 100 | 0.0 | 2.0 | 0.00 | 0.14 | 0.00 | 86 | 1011.1 |
| 20260905155002 | 75 | 64 | 0.0 | 2.0 | 0.00 | 0.14 | 0.00 | 86 | 1011.1 |
| 20260905154537 | 75 | 72 | 0.0 | 4.0 | 0.00 | 0.14 | 0.00 | 86 | 1011.1 |
| 20260905154008 | 75 | 61 | 2.0 | 4.0 | 0.00 | 0.14 | 0.00 | 86 | 1011.0 |
| 20260905153541 | 75 | 92 | 2.0 | 4.0 | 0.00 | 0.14 | 0.00 | 86 | 1011.1 |
| 20260905153012 | 75 | 104 | 3.0 | 5.0 | 0.00 | 0.14 | 0.00 | 86 | 1011.1 |
| 20260905152544 | 75 | 119 | 2.0 | 5.0 | 0.00 | 0.14 | 0.00 | 87 | 1011.1 |
| 20260905152015 | 75 | 156 | 1.0 | 4.0 | 0.00 | 0.14 | 0.00 | 86 | 1011.1 |
| 20260905151550 | 75 | 133 | 0.0 | 3.0 | 0.00 | 0.14 | 0.00 | 87 | 1011.3 |
| 20260905151023 | 75 | 133 | 1.0 | 3.0 | 0.00 | 0.14 | 0.00 | 86 | 1011.3 |
| 20260905150556 | 75 | 128 | 1.0 | 3.0 | 0.00 | 0.14 | 0.00 | 85 | 1011.3 |
| 20260905150015 | 76 | 208 | 1.0 | 4.0 | 0.00 | 0.14 | 0.00 | 85 | 1011.4 |
| 20260905145549 | 76 | 209 | 1.0 | 4.0 | 0.00 | 0.14 | 0.00 | 86 | 1011.3 |
| 20260905145019 | 76 | 124 | 0.0 | 4.0 | 0.00 | 0.14 | 0.00 | 86 | 1011.3 |
| 20260905144551 | 76 | 100 | 1.0 | 6.0 | 0.00 | 0.14 | 0.00 | 84 | 1011.2 |
| 20260905144026 | 76 | 138 | 3.0 | 8.0 | 0.00 | 0.14 | 0.00 | 84 | 1011.0 |
| 20260905143541 | 76 | 142 | 4.0 | 8.0 | 0.00 | 0.14 | 0.00 | 83 | 1011.0 |
| 20260905143014 | 76 | 194 | 2.0 | 7.0 | 0.00 | 0.14 | 0.00 | 84 | 1010.9 |
| 20260905142549 | 76 | 122 | 2.0 | 10.0 | 0.00 | 0.14 | 0.00 | 84 | 1010.8 |
| 20260905142017 | 76 | 142 | 5.0 | 10.0 | 0.00 | 0.14 | 0.00 | 83 | 1010.9 |
| 20260905141603 | 76 | 123 | 2.0 | 7.0 | 0.00 | 0.14 | 0.00 | 85 | 1010.8 |
| 20260905141027 | 76 | 92 | 2.0 | 7.0 | 0.00 | 0.14 | 0.00 | 85 | 1010.9 |
| 20260905140542 | 76 | 94 | 2.0 | 5.0 | 0.00 | 0.14 | 0.00 | 86 | 1010.8 |
| 20260905140013 | 76 | 113 | 3.0 | 6.0 | 0.00 | 0.14 | 0.00 | 85 | 1010.7 |
| 20260905135547 | 75 | 72 | 3.0 | 8.0 | 0.00 | 0.14 | 0.00 | 85 | 1010.8 |
| 20260905135015 | 75 | 80 | 3.0 | 8.0 | 0.00 | 0.14 | 0.00 | 85 | 1010.6 |
| 20260905134529 | 75 | 91 | 4.0 | 7.0 | 0.00 | 0.14 | 0.00 | 86 | 1010.3 |
| 20260905134007 | 75 | 109 | 2.0 | 5.0 | 0.00 | 0.14 | 0.00 | 87 | 1010.2 |
| 20260905133539 | 75 | 121 | 2.0 | 5.0 | 0.00 | 0.14 | 0.00 | 88 | 1010.2 |
| 20260905133016 | 75 | 155 | 0.0 | 8.0 | 0.00 | 0.14 | 0.00 | 88 | 1010.0 |
| 20260905132543 | 75 | 109 | 3.0 | 8.0 | 0.00 | 0.14 | 0.00 | 88 | 1010.1 |
| 20260905132059 | 74 | 128 | 2.0 | 6.0 | 0.00 | 0.14 | 0.00 | 89 | 1010.2 |
| 20260905132002 | 74 | 124 | 3.0 | 6.0 | 0.00 | 0.14 | 0.00 | 88 | 1010.3 |
| 20260905131552 | 74 | 59 | 4.0 | 6.0 | 0.00 | 0.14 | 0.00 | 88 | 1010.2 |
| 20260905131008 | 74 | 73 | 2.0 | 4.0 | 0.00 | 0.14 | 0.00 | 89 | 1010.1 |
| 20260905130537 | 74 | 54 | 1.0 | 4.0 | 0.00 | 0.14 | 0.00 | 90 | 1010.3 |
| 20260905130005 | 74 | 38 | 1.0 | 3.0 | 0.00 | 0.14 | 0.00 | 89 | 1010.4 |
| 20260905125537 | 73 | 9 | 2.0 | 3.0 | 0.00 | 0.14 | 0.00 | 89 | 1010.5 |
| 20260905125013 | 73 | 75 | 0.0 | 2.0 | 0.00 | 0.14 | 0.00 | 90 | 1010.4 |
| 20260905124548 | 73 | 75 | 0.0 | 1.0 | 0.00 | 0.14 | 0.00 | 91 | 1010.4 |
| 20260905124016 | 73 | 75 | 0.0 | 2.0 | 0.00 | 0.14 | 0.00 | 91 | 1010.4 |
| 20260905123547 | 73 | 75 | 1.0 | 3.0 | 0.00 | 0.14 | 0.00 | 90 | 1010.3 |
| 20260905123017 | 73 | 75 | 1.0 | 3.0 | 0.00 | 0.14 | 0.00 | 90 | 1010.3 |
| 20260905122553 | 72 | 75 | 0.0 | 4.0 | 0.00 | 0.14 | 0.00 | 91 | 1010.2 |
| 20260905122026 | 72 | 75 | 2.0 | 4.0 | 0.00 | 0.14 | 0.00 | 91 | 1010.2 |
| 20260905121557 | 72 | 75 | 1.0 | 3.0 | 0.00 | 0.14 | 0.00 | 92 | 1010.2 |
| 20260905121029 | 71 | 33 | 0.0 | 3.0 | 0.00 | 0.14 | 0.00 | 94 | 1010.2 |
| 20260905120506 | 71 | 60 | 0.0 | 0.0 | 0.00 | 0.14 | 0.00 | 96 | 1010.2 |
| 20260905120035 | 71 | 60 | 0.0 | 0.0 | 0.00 | 0.14 | 0.00 | 97 | 1010.0 |
| 20260905115559 | 70 | 60 | 0.0 | 0.0 | 0.00 | 0.14 | 0.00 | 97 | 1010.0 |
| 20260905115501 | 70 | 60 | 0.0 | 0.0 | 0.00 | 0.14 | 0.00 | 97 | 1010.0 |
| 20260905115037 | 70 | 60 | 0.0 | 0.0 | 0.00 | 0.14 | 0.00 | 97 | 1010.0 |
| 20260905114553 | 69 | 60 | 0.0 | 0.0 | 0.00 | 0.14 | 0.00 | 97 | 1009.9 |
| 20260905114024 | 69 | 60 | 0.0 | 0.0 | 0.00 | 0.14 | 0.00 | 97 | 1009.9 |
| 20260905113555 | 69 | 60 | 0.0 | 0.0 | 0.00 | 0.14 | 0.00 | 97 | 1009.9 |
| 20260905113025 | 68 | 319 | 0.0 | 0.0 | 0.00 | 0.14 | 0.00 | 96 | 1010.0 |
| 20260905112559 | 68 | 319 | 0.0 | 0.0 | 0.00 | 0.14 | 0.00 | 96 | 1009.9 |
| 20260905112502 | 68 | 319 | 0.0 | 0.0 | 0.00 | 0.14 | 0.00 | 96 | 1009.9 |
| 20260905112031 | 68 | 319 | 0.0 | 0.0 | 0.00 | 0.14 | 0.00 | 96 | 1010.1 |
| 20260905111553 | 68 | 319 | 0.0 | 0.0 | 0.00 | 0.14 | 0.00 | 96 | 1009.9 |
| 20260905111023 | 68 | 319 | 0.0 | 0.0 | 0.00 | 0.14 | 0.00 | 96 | 1009.9 |
| 20260905110552 | 68 | 319 | 0.0 | 0.0 | 0.00 | 0.14 | 0.00 | 96 | 1010.2 |
| 20260905110023 | 68 | 319 | 0.0 | 0.0 | 0.00 | 0.14 | 0.00 | 95 | 1010.1 |
| 20260905105556 | 68 | 319 | 0.0 | 0.0 | 0.00 | 0.14 | 0.00 | 95 | 1010.1 |
| 20260905105015 | 68 | 319 | 0.0 | 0.0 | 0.00 | 0.14 | 0.00 | 95 | 1009.8 |
| 20260905104546 | 68 | 319 | 0.0 | 0.0 | 0.00 | 0.14 | 0.00 | 94 | 1009.6 |
| 20260905104024 | 69 | 319 | 0.0 | 0.0 | 0.00 | 0.14 | 0.00 | 94 | 1009.4 |
| 20260905103553 | 69 | 319 | 0.0 | 0.0 | 0.00 | 0.14 | 0.00 | 94 | 1009.2 |
| 20260905103033 | 69 | 319 | 0.0 | 0.0 | 0.00 | 0.14 | 0.00 | 94 | 1009.1 |
| 20260905102558 | 69 | 319 | 0.0 | 0.0 | 0.00 | 0.14 | 0.00 | 94 | 1009.1 |
| 20260905102503 | 69 | 319 | 0.0 | 0.0 | 0.00 | 0.14 | 0.00 | 94 | 1009.0 |
| 20260905102020 | 69 | 319 | 0.0 | 1.0 | 0.00 | 0.14 | 0.00 | 94 | 1009.2 |
| 20260905101618 | 69 | 319 | 0.0 | 1.0 | 0.00 | 0.14 | 0.00 | 93 | 1009.1 |
| 20260905101024 | 69 | 319 | 0.0 | 3.0 | 0.00 | 0.14 | 0.00 | 93 | 1009.2 |
| 20260905100600 | 69 | 319 | 1.0 | 3.0 | 0.00 | 0.14 | 0.00 | 93 | 1009.1 |
| 20260905100501 | 69 | 319 | 1.0 | 3.0 | 0.00 | 0.14 | 0.00 | 93 | 1009.1 |
| 20260905100033 | 70 | 31 | 0.0 | 1.0 | 0.00 | 0.14 | 0.00 | 92 | 1009.1 |
| 20260905095505 | 70 | 31 | 0.0 | 2.0 | 0.00 | 0.14 | 0.00 | 92 | 1009.1 |
| 20260905095014 | 70 | 31 | 0.0 | 2.0 | 0.00 | 0.14 | 0.00 | 92 | 1009.1 |
| 20260905094551 | 70 | 118 | 0.0 | 3.0 | 0.00 | 0.14 | 0.00 | 92 | 1009.1 |
| 20260905094026 | 70 | 118 | 0.0 | 3.0 | 0.00 | 0.14 | 0.00 | 92 | 1009.1 |
| 20260905093602 | 70 | 104 | 0.0 | 2.0 | 0.00 | 0.14 | 0.00 | 92 | 1009.1 |
| 20260905093035 | 70 | 107 | 0.0 | 2.0 | 0.00 | 0.14 | 0.00 | 92 | 1009.0 |
| 20260905092504 | 70 | 82 | 0.0 | 2.0 | 0.00 | 0.14 | 0.00 | 92 | 1009.1 |
| 20260905092039 | 70 | 72 | 0.0 | 2.0 | 0.00 | 0.14 | 0.00 | 92 | 1009.0 |
| 20260905091510 | 70 | 36 | 0.0 | 1.0 | 0.00 | 0.14 | 0.00 | 92 | 1009.0 |
| 20260905091039 | 70 | 128 | 0.0 | 3.0 | 0.00 | 0.14 | 0.00 | 92 | 1009.0 |
| 20260905090514 | 70 | 128 | 1.0 | 3.0 | 0.00 | 0.14 | 0.00 | 93 | 1009.0 |
| 20260905090046 | 70 | 121 | 0.0 | 2.0 | 0.00 | 0.14 | 0.00 | 92 | 1009.1 |
| 20260905085523 | 70 | 121 | 0.0 | 2.0 | 0.00 | 0.14 | 0.00 | 92 | 1009.0 |
| 20260905085039 | 70 | 121 | 0.0 | 3.0 | 0.00 | 0.14 | 0.00 | 92 | 1009.1 |
| 20260905084520 | 70 | 121 | 1.0 | 3.0 | 0.00 | 0.14 | 0.00 | 92 | 1009.0 |
| 20260905084040 | 70 | 117 | 0.0 | 1.0 | 0.00 | 0.14 | 0.00 | 92 | 1009.0 |
| 20260905083510 | 70 | 117 | 0.0 | 3.0 | 0.00 | 0.14 | 0.00 | 92 | 1009.0 |
| 20260905083043 | 70 | 116 | 0.0 | 3.0 | 0.00 | 0.14 | 0.00 | 92 | 1009.0 |
| 20260905082557 | 70 | 77 | 1.0 | 2.0 | 0.00 | 0.14 | 0.00 | 91 | 1009.0 |
| 20260905082501 | 70 | 77 | 0.0 | 2.0 | 0.00 | 0.14 | 0.00 | 91 | 1009.0 |
| 20260905082032 | 70 | 286 | 0.0 | 2.0 | 0.00 | 0.14 | 0.00 | 91 | 1009.0 |
| 20260905081601 | 70 | 39 | 0.0 | 2.0 | 0.00 | 0.14 | 0.00 | 91 | 1009.1 |
| 20260905081502 | 70 | 38 | 1.0 | 2.0 | 0.00 | 0.14 | 0.00 | 90 | 1009.1 |
| 20260905081038 | 71 | 38 | 0.0 | 3.0 | 0.00 | 0.14 | 0.00 | 90 | 1009.1 |
| 20260905080508 | 71 | 92 | 1.0 | 4.0 | 0.00 | 0.14 | 0.00 | 90 | 1009.1 |
| 20260905080042 | 71 | 142 | 2.0 | 4.0 | 0.00 | 0.14 | 0.00 | 90 | 1009.2 |
| 20260905075518 | 71 | 138 | 0.0 | 2.0 | 0.00 | 0.14 | 0.00 | 90 | 1009.1 |
| 20260905075049 | 71 | 138 | 1.0 | 2.0 | 0.00 | 0.14 | 0.00 | 90 | 1009.2 |
| 20260905074518 | 71 | 138 | 0.0 | 2.0 | 0.00 | 0.14 | 0.00 | 89 | 1009.2 |
| 20260905074052 | 71 | 138 | 1.0 | 2.0 | 0.00 | 0.14 | 0.00 | 89 | 1009.3 |
| 20260905073516 | 71 | 102 | 0.0 | 2.0 | 0.00 | 0.14 | 0.00 | 89 | 1009.3 |
| 20260905073047 | 71 | 102 | 1.0 | 2.0 | 0.00 | 0.14 | 0.00 | 88 | 1009.4 |
| 20260905072518 | 72 | 155 | 0.0 | 1.0 | 0.00 | 0.14 | 0.00 | 88 | 1009.4 |
| 20260905072056 | 72 | 155 | 0.0 | 2.0 | 0.00 | 0.14 | 0.00 | 87 | 1009.4 |
| 20260905071530 | 72 | 155 | 0.0 | 2.0 | 0.00 | 0.14 | 0.00 | 87 | 1009.4 |
| 20260905071045 | 73 | 307 | 1.0 | 2.0 | 0.00 | 0.14 | 0.00 | 86 | 1009.4 |
| 20260905070513 | 73 | 208 | 0.0 | 4.0 | 0.00 | 0.14 | 0.00 | 85 | 1009.6 |
| 20260905070044 | 73 | 220 | 0.0 | 4.0 | 0.00 | 0.14 | 0.00 | 85 | 1009.6 |
| 20260905065517 | 73 | 216 | 1.0 | 6.0 | 0.00 | 0.14 | 0.00 | 85 | 1009.6 |
| 20260905065026 | 73 | 228 | 1.0 | 5.0 | 0.00 | 0.14 | 0.00 | 86 | 1009.7 |
| 20260905064600 | 72 | 318 | 2.0 | 6.0 | 0.00 | 0.14 | 0.00 | 87 | 1009.7 |
| 20260905064504 | 72 | 290 | 1.0 | 3.0 | 0.00 | 0.14 | 0.00 | 87 | 1009.7 |
| 20260905064044 | 72 | 162 | 1.0 | 3.0 | 0.00 | 0.14 | 0.00 | 87 | 1009.8 |
| 20260905063513 | 72 | 279 | 0.0 | 3.0 | 0.00 | 0.14 | 0.00 | 86 | 1009.8 |
| 20260905063049 | 72 | 298 | 2.0 | 5.0 | 0.00 | 0.14 | 0.00 | 87 | 1009.9 |
| 20260905062519 | 72 | 278 | 2.0 | 5.0 | 0.00 | 0.14 | 0.00 | 87 | 1009.9 |
| 20260905062046 | 72 | 312 | 1.0 | 6.0 | 0.00 | 0.14 | 0.00 | 88 | 1010.0 |
| 20260905061515 | 72 | 2 | 2.0 | 8.0 | 0.00 | 0.14 | 0.00 | 87 | 1010.0 |
| 20260905061051 | 73 | 5 | 2.0 | 8.0 | 0.00 | 0.14 | 0.00 | 87 | 1010.2 |
| 20260905060522 | 73 | 275 | 3.0 | 7.0 | 0.00 | 0.14 | 0.00 | 86 | 1010.3 |
| 20260905060054 | 73 | 318 | 2.0 | 5.0 | 0.00 | 0.14 | 0.00 | 86 | 1010.4 |
| 20260905055528 | 73 | 287 | 2.0 | 5.0 | 0.00 | 0.14 | 0.00 | 86 | 1010.4 |
| 20260905055054 | 73 | 308 | 1.0 | 4.0 | 0.00 | 0.14 | 0.00 | 87 | 1010.4 |
| 20260905054526 | 73 | 288 | 1.0 | 4.0 | 0.00 | 0.14 | 0.00 | 86 | 1010.6 |
| 20260905054058 | 73 | 20 | 2.0 | 4.0 | 0.00 | 0.14 | 0.00 | 86 | 1010.7 |
| 20260905053532 | 73 | 308 | 1.0 | 3.0 | 0.00 | 0.14 | 0.00 | 86 | 1010.7 |
| 20260905053004 | 73 | 308 | 0.0 | 3.0 | 0.00 | 0.18 | 0.14 | 86 | 1010.9 |
| 20260905052534 | 73 | 304 | 1.0 | 3.0 | 0.00 | 0.18 | 0.14 | 86 | 1010.9 |
| 20260905052013 | 73 | 275 | 1.0 | 4.0 | 0.00 | 0.18 | 0.14 | 86 | 1010.9 |
| 20260905051544 | 73 | 298 | 0.0 | 5.0 | 0.00 | 0.18 | 0.14 | 86 | 1011.0 |
| 20260905051019 | 73 | 296 | 1.0 | 5.0 | 0.00 | 0.18 | 0.14 | 86 | 1010.8 |
| 20260905050552 | 73 | 313 | 0.0 | 4.0 | 0.00 | 0.18 | 0.14 | 86 | 1010.8 |
| 20260905050022 | 73 | 303 | 1.0 | 4.0 | 0.00 | 0.18 | 0.14 | 86 | 1011.0 |
| 20260905045553 | 73 | 39 | 0.0 | 2.0 | 0.00 | 0.18 | 0.14 | 86 | 1010.9 |
| 20260905045026 | 73 | 177 | 0.0 | 3.0 | 0.00 | 0.18 | 0.14 | 86 | 1010.9 |
| 20260905044558 | 73 | 330 | 0.0 | 3.0 | 0.00 | 0.18 | 0.14 | 86 | 1010.9 |
| 20260905044020 | 73 | 322 | 0.0 | 4.0 | 0.00 | 0.18 | 0.14 | 86 | 1010.9 |
| 20260905043547 | 74 | 54 | 1.0 | 4.0 | 0.00 | 0.18 | 0.14 | 87 | 1011.0 |
| 20260905043022 | 74 | 289 | 1.0 | 5.0 | 0.00 | 0.21 | 0.14 | 87 | 1011.0 |
| 20260905042558 | 74 | 10 | 1.0 | 5.0 | 0.00 | 0.21 | 0.14 | 87 | 1011.0 |
| 20260905042035 | 73 | 4 | 2.0 | 5.0 | 0.00 | 0.21 | 0.14 | 87 | 1011.1 |
| 20260905041550 | 73 | 19 | 0.0 | 3.0 | 0.00 | 0.21 | 0.14 | 88 | 1011.0 |
| 20260905041023 | 73 | 325 | 0.0 | 3.0 | 0.00 | 0.21 | 0.14 | 87 | 1010.9 |
| 20260905040555 | 73 | 288 | 0.0 | 3.0 | 0.00 | 0.21 | 0.14 | 88 | 1011.0 |
| 20260905040025 | 73 | 340 | 1.0 | 2.0 | 0.00 | 0.21 | 0.14 | 89 | 1011.1 |
| 20260905035539 | 73 | 330 | 0.0 | 3.0 | 0.00 | 0.21 | 0.14 | 89 | 1011.2 |
| 20260905035009 | 73 | 40 | 0.0 | 3.0 | 0.00 | 0.21 | 0.14 | 90 | 1011.3 |
| 20260905034547 | 73 | 40 | 1.0 | 3.0 | 0.00 | 0.21 | 0.14 | 90 | 1011.4 |
| 20260905034013 | 72 | 23 | 0.0 | 3.0 | 0.00 | 0.21 | 0.14 | 90 | 1011.3 |
| 20260905033547 | 72 | 23 | 0.0 | 3.0 | 0.00 | 0.21 | 0.14 | 91 | 1011.2 |
| 20260905033022 | 72 | 25 | 2.0 | 6.0 | 0.00 | 0.56 | 0.14 | 91 | 1011.3 |
| 20260905032550 | 72 | 41 | 3.0 | 6.0 | 0.00 | 0.56 | 0.14 | 92 | 1011.4 |
| 20260905032021 | 72 | 41 | 2.0 | 6.0 | 0.00 | 0.56 | 0.14 | 93 | 1011.3 |
| 20260905031559 | 72 | 44 | 2.0 | 3.0 | 0.00 | 0.56 | 0.14 | 93 | 1011.3 |
| 20260905031034 | 72 | 46 | 1.0 | 2.0 | 0.00 | 0.56 | 0.14 | 92 | 1011.3 |
| 20260905030507 | 72 | 29 | 1.0 | 2.0 | 0.00 | 0.56 | 0.14 | 92 | 1011.3 |
| 20260905030041 | 73 | 29 | 0.0 | 2.0 | 0.00 | 0.56 | 0.14 | 92 | 1011.3 |
| 20260905025513 | 73 | 330 | 0.0 | 4.0 | 0.00 | 0.56 | 0.14 | 92 | 1011.3 |
| 20260905025027 | 73 | 330 | 0.0 | 4.0 | 0.00 | 0.56 | 0.14 | 91 | 1011.3 |
| 20260905024507 | 73 | 55 | 0.0 | 3.0 | 0.00 | 0.56 | 0.14 | 91 | 1011.3 |
| 20260905024047 | 73 | 55 | 0.0 | 4.0 | 0.00 | 0.56 | 0.14 | 91 | 1011.2 |
| 20260905023515 | 73 | 34 | 1.0 | 4.0 | 0.00 | 0.56 | 0.14 | 91 | 1011.2 |
| 20260905023051 | 73 | 55 | 0.0 | 2.0 | 0.00 | 0.56 | 0.14 | 91 | 1011.2 |
| 20260905022523 | 73 | 68 | 0.0 | 4.0 | 0.00 | 0.56 | 0.14 | 90 | 1011.0 |
| 20260905022053 | 73 | 68 | 0.0 | 4.0 | 0.00 | 0.56 | 0.14 | 91 | 1011.0 |
| 20260905021524 | 72 | 306 | 0.0 | 2.0 | 0.00 | 0.56 | 0.14 | 92 | 1011.0 |
| 20260905021003 | 72 | 182 | 0.0 | 2.0 | 0.00 | 0.56 | 0.14 | 92 | 1010.9 |
| 20260905020541 | 73 | 182 | 0.0 | 2.0 | 0.00 | 0.56 | 0.14 | 92 | 1011.0 |
| 20260905020014 | 73 | 236 | 0.0 | 1.0 | 0.00 | 0.56 | 0.14 | 91 | 1011.0 |
| 20260905015549 | 73 | 346 | 0.0 | 1.0 | 0.00 | 0.56 | 0.14 | 91 | 1010.9 |
| 20260905015010 | 73 | 346 | 0.0 | 3.0 | 0.00 | 0.56 | 0.14 | 91 | 1010.7 |
| 20260905014521 | 73 | 346 | 0.0 | 3.0 | 0.00 | 0.56 | 0.14 | 90 | 1010.6 |
| 20260905014059 | 73 | 327 | 0.0 | 2.0 | 0.00 | 0.56 | 0.14 | 91 | 1010.6 |
| 20260905013533 | 74 | 327 | 0.0 | 2.0 | 0.00 | 0.56 | 0.14 | 90 | 1010.5 |
| 20260905013005 | 74 | 87 | 0.0 | 2.0 | 0.00 | 0.56 | 0.14 | 88 | 1010.3 |
| 20260905012525 | 74 | 87 | 0.0 | 2.0 | 0.00 | 0.56 | 0.14 | 88 | 1010.2 |
| 20260905012039 | 74 | 40 | 0.0 | 1.0 | 0.00 | 0.56 | 0.14 | 87 | 1010.3 |
| 20260905011511 | 75 | 40 | 0.0 | 4.0 | 0.00 | 0.56 | 0.14 | 87 | 1010.3 |
| 20260905011046 | 74 | 40 | 0.0 | 4.0 | 0.00 | 0.56 | 0.14 | 88 | 1010.1 |
| 20260905010512 | 74 | 69 | 1.0 | 6.0 | 0.00 | 0.56 | 0.14 | 89 | 1010.1 |
| 20260905010046 | 73 | 55 | 2.0 | 6.0 | 0.00 | 0.56 | 0.14 | 91 | 1010.1 |
| 20260905005523 | 72 | 57 | 4.0 | 7.0 | 0.00 | 0.56 | 0.14 | 94 | 1010.1 |
| 20260905005051 | 72 | 27 | 2.0 | 5.0 | 0.00 | 0.56 | 0.14 | 96 | 1010.0 |
| 20260905004523 | 72 | 64 | 1.0 | 3.0 | 0.00 | 0.56 | 0.14 | 97 | 1010.0 |
| 20260905004059 | 72 | 7 | 0.0 | 2.0 | 0.00 | 0.56 | 0.14 | 97 | 1009.9 |
| 20260905003533 | 72 | 39 | 0.0 | 1.0 | 0.00 | 0.56 | 0.14 | 97 | 1009.9 |
| 20260905003003 | 72 | 333 | 0.0 | 2.0 | 0.00 | 0.56 | 0.14 | 97 | 1009.9 |
| 20260905002530 | 72 | 333 | 0.0 | 4.0 | 0.00 | 0.56 | 0.14 | 97 | 1010.0 |
| 20260905002005 | 72 | 102 | 1.0 | 4.0 | 0.00 | 0.56 | 0.14 | 96 | 1009.9 |
| 20260905001537 | 72 | 114 | 0.0 | 0.0 | 0.00 | 0.56 | 0.14 | 96 | 1010.0 |
| 20260905001009 | 72 | 166 | 0.0 | 1.0 | 0.00 | 0.56 | 0.14 | 96 | 1010.0 |
| 20260905000543 | 72 | 166 | 0.0 | 1.0 | 0.00 | 0.56 | 0.14 | 96 | 1009.9 |
| 20260905000059 | 72 | 229 | 0.0 | 0.0 | 0.00 | 0.56 | 0.14 | 96 | 1009.9 |
| 20260905000002 | 72 | 229 | 0.0 | 0.0 | 0.00 | 0.56 | 0.14 | 96 | 1009.9 |
| 20260904235531 | 72 | 229 | 0.0 | 0.0 | 0.00 | 0.56 | 0.14 | 96 | 1009.9 |
| 20260904235007 | 72 | 229 | 0.0 | 0.0 | 0.00 | 0.56 | 0.14 | 96 | 1010.0 |
| 20260904234546 | 73 | 229 | 0.0 | 2.0 | 0.00 | 0.56 | 0.14 | 96 | 1010.0 |
| 20260904234013 | 73 | 229 | 0.0 | 1.0 | 0.00 | 0.56 | 0.14 | 96 | 1010.1 |
| 20260904233545 | 73 | 218 | 0.0 | 3.0 | 0.00 | 0.56 | 0.14 | 96 | 1010.3 |
| 20260904233017 | 73 | 218 | 1.0 | 3.0 | 0.00 | 0.56 | 0.14 | 95 | 1010.2 |
| 20260904232549 | 73 | 215 | 1.0 | 3.0 | 0.00 | 0.56 | 0.14 | 95 | 1010.1 |
| 20260904232026 | 73 | 283 | 1.0 | 3.0 | 0.00 | 0.56 | 0.14 | 95 | 1010.1 |
| 20260904231556 | 73 | 330 | 0.0 | 0.0 | 0.00 | 0.56 | 0.14 | 95 | 1010.3 |
| 20260904231031 | 73 | 330 | 0.0 | 1.0 | 0.00 | 0.56 | 0.14 | 95 | 1010.3 |
| 20260904230601 | 73 | 330 | 0.0 | 2.0 | 0.00 | 0.56 | 0.14 | 95 | 1010.4 |
| 20260904230033 | 73 | 330 | 0.0 | 1.0 | 0.00 | 0.56 | 0.14 | 95 | 1010.3 |
| 20260904225505 | 73 | 2 | 0.0 | 2.0 | 0.00 | 0.56 | 0.14 | 95 | 1010.4 |
| 20260904225038 | 73 | 2 | 1.0 | 2.0 | 0.00 | 0.56 | 0.14 | 94 | 1010.5 |
| 20260904224521 | 73 | 2 | 1.0 | 3.0 | 0.00 | 0.56 | 0.14 | 94 | 1010.5 |
| 20260904224050 | 73 | 341 | 1.0 | 3.0 | 0.00 | 0.56 | 0.14 | 94 | 1010.4 |
| 20260904223521 | 73 | 23 | 1.0 | 3.0 | 0.00 | 0.56 | 0.14 | 94 | 1010.4 |
| 20260904223043 | 73 | 300 | 1.0 | 3.0 | 0.00 | 0.56 | 0.14 | 94 | 1010.3 |
| 20260904222510 | 73 | 33 | 2.0 | 3.0 | 0.00 | 0.56 | 0.14 | 94 | 1010.4 |
| 20260904222042 | 73 | 9 | 0.0 | 2.0 | 0.00 | 0.56 | 0.14 | 94 | 1010.3 |
| 20260904221514 | 73 | 9 | 1.0 | 3.0 | 0.00 | 0.56 | 0.14 | 94 | 1010.5 |
| 20260904221050 | 73 | 9 | 1.0 | 3.0 | 0.00 | 0.56 | 0.14 | 94 | 1010.4 |
| 20260904220523 | 73 | 296 | 0.0 | 3.0 | 0.00 | 0.56 | 0.14 | 94 | 1010.4 |
| 20260904220054 | 73 | 312 | 1.0 | 4.0 | 0.00 | 0.56 | 0.14 | 93 | 1010.5 |
| 20260904215528 | 73 | 342 | 1.0 | 5.0 | 0.00 | 0.56 | 0.14 | 93 | 1010.8 |
| 20260904215004 | 73 | 1 | 2.0 | 5.0 | 0.00 | 0.56 | 0.14 | 93 | 1011.0 |
| 20260904214546 | 73 | 15 | 1.0 | 4.0 | 0.00 | 0.56 | 0.14 | 93 | 1010.9 |
| 20260904214012 | 73 | 301 | 0.0 | 4.0 | 0.00 | 0.56 | 0.14 | 93 | 1010.8 |
| 20260904213544 | 73 | 338 | 1.0 | 4.0 | 0.00 | 0.56 | 0.14 | 92 | 1010.9 |
| 20260904213017 | 73 | 18 | 0.0 | 3.0 | 0.00 | 0.56 | 0.14 | 92 | 1010.7 |
| 20260904212551 | 73 | 7 | 0.0 | 2.0 | 0.00 | 0.56 | 0.14 | 93 | 1010.7 |
| 20260904212025 | 73 | 7 | 0.0 | 4.0 | 0.00 | 0.56 | 0.14 | 93 | 1011.0 |
| 20260904211604 | 73 | 290 | 0.0 | 4.0 | 0.00 | 0.56 | 0.14 | 93 | 1011.1 |
| 20260904211032 | 73 | 21 | 1.0 | 4.0 | 0.00 | 0.56 | 0.14 | 93 | 1011.1 |
| 20260904210546 | 73 | 25 | 1.0 | 3.0 | 0.02 | 0.56 | 0.14 | 92 | 1011.2 |
| 20260904210023 | 73 | 13 | 0.0 | 3.0 | 0.14 | 0.56 | 0.14 | 93 | 1011.3 |
| 20260904205553 | 73 | 296 | 1.0 | 3.0 | 0.14 | 0.56 | 0.14 | 94 | 1011.3 |
| 20260904205020 | 74 | 308 | 1.0 | 6.0 | 0.14 | 0.56 | 0.14 | 93 | 1011.3 |
| 20260904204550 | 74 | 223 | 1.0 | 6.0 | 0.14 | 0.56 | 0.14 | 94 | 1011.5 |
| 20260904204009 | 74 | 17 | 0.0 | 9.0 | 0.14 | 0.56 | 0.14 | 93 | 1011.6 |
| 20260904203542 | 74 | 318 | 2.0 | 9.0 | 0.14 | 0.56 | 0.14 | 92 | 1011.5 |
| 20260904203014 | 75 | 30 | 3.0 | 7.0 | 0.14 | 0.56 | 0.14 | 92 | 1011.5 |
| 20260904202548 | 75 | 25 | 1.0 | 4.0 | 0.14 | 0.56 | 0.14 | 91 | 1011.5 |
| 20260904202024 | 76 | 286 | 0.0 | 9.0 | 0.14 | 0.56 | 0.14 | 90 | 1011.4 |
| 20260904201540 | 77 | 27 | 5.0 | 11.0 | 0.14 | 0.56 | 0.14 | 88 | 1011.4 |
| 20260904201014 | 78 | 234 | 3.0 | 19.0 | 0.14 | 0.56 | 0.14 | 84 | 1010.9 |
| 20260904200546 | 81 | 55 | 9.0 | 19.0 | 0.10 | 0.52 | 0.11 | 79 | 1011.8 |
| 20260904200028 | 85 | 339 | 0.0 | 4.0 | 0.00 | 0.42 | 0.00 | 77 | 1011.3 |
| 20260904195554 | 85 | 229 | 0.0 | 2.0 | 0.00 | 0.42 | 0.00 | 75 | 1010.7 |
| 20260904195012 | 86 | 128 | 0.0 | 3.0 | 0.00 | 0.42 | 0.00 | 73 | 1010.4 |
| 20260904194528 | 86 | 167 | 0.0 | 3.0 | 0.00 | 0.42 | 0.00 | 74 | 1010.2 |
| 20260904194004 | 86 | 117 | 0.0 | 2.0 | 0.00 | 0.42 | 0.00 | 72 | 1010.4 |
| 20260904193538 | 86 | 138 | 0.0 | 4.0 | 0.00 | 0.42 | 0.00 | 71 | 1010.1 |
| 20260904193015 | 87 | 155 | 1.0 | 4.0 | 0.00 | 0.42 | 0.00 | 69 | 1010.2 |
| 20260904192525 | 87 | 148 | 0.0 | 0.0 | 0.00 | 0.42 | 0.00 | 70 | 1010.4 |
| 20260904192004 | 87 | 94 | 0.0 | 0.0 | 0.00 | 0.42 | 0.00 | 70 | 1010.4 |
| 20260904191536 | 87 | 67 | 0.0 | 5.0 | 0.00 | 0.42 | 0.00 | 68 | 1010.3 |
| 20260904191008 | 88 | 67 | 1.0 | 6.0 | 0.00 | 0.42 | 0.00 | 67 | 1010.1 |
| 20260904190534 | 88 | 66 | 2.0 | 6.0 | 0.00 | 0.42 | 0.00 | 67 | 1010.3 |
| 20260904190013 | 88 | 104 | 0.0 | 5.0 | 0.00 | 0.42 | 0.00 | 68 | 1010.4 |